| time (UTC) | temp F | wind direction | speed MPH | gust MPH | rain 1hr in | rain 24hr in | rain mn in | humidity % | barometer mb |
| 20260506024016 | 50 | 0 | 0.0 | 0.0 | 0.00 | 0.27 | 0.27 | 91 | 1010.8 |
| 20260506023519 | 50 | 0 | 0.0 | 0.0 | 0.00 | 0.27 | 0.27 | 91 | 1011.0 |
| 20260506023031 | 51 | 0 | 0.0 | 0.0 | 0.00 | 0.27 | 0.27 | 90 | 1010.7 |
| 20260506022516 | 51 | 0 | 0.0 | 0.0 | 0.00 | 0.27 | 0.27 | 90 | 1010.4 |
| 20260506022016 | 51 | 0 | 0.0 | 0.0 | 0.00 | 0.27 | 0.27 | 89 | 1010.3 |
| 20260506021528 | 51 | 0 | 0.0 | 0.0 | 0.00 | 0.27 | 0.27 | 88 | 1010.3 |
| 20260506021016 | 51 | 0 | 0.0 | 0.0 | 0.00 | 0.27 | 0.27 | 87 | 1010.1 |
| 20260506020519 | 52 | 0 | 0.0 | 0.0 | 0.00 | 0.27 | 0.27 | 87 | 1010.1 |
| 20260506020032 | 52 | 0 | 0.0 | 0.0 | 0.00 | 0.27 | 0.27 | 87 | 1010.1 |
| 20260506015516 | 52 | 0 | 0.0 | 0.0 | 0.00 | 0.27 | 0.27 | 87 | 1010.2 |
| 20260506015016 | 53 | 0 | 0.0 | 0.0 | 0.00 | 0.27 | 0.27 | 87 | 1010.1 |
| 20260506014533 | 53 | 0 | 0.0 | 0.0 | 0.00 | 0.27 | 0.27 | 88 | 1010.1 |
| 20260506014018 | 54 | 0 | 0.0 | 0.0 | 0.00 | 0.27 | 0.27 | 89 | 1009.9 |
| 20260506013518 | 54 | 0 | 0.0 | 0.0 | 0.00 | 0.27 | 0.27 | 91 | 1009.9 |
| 20260506013043 | 54 | 0 | 0.0 | 0.0 | 0.01 | 0.27 | 0.27 | 91 | 1009.8 |
| 20260506012518 | 54 | 0 | 0.0 | 0.0 | 0.02 | 0.27 | 0.27 | 92 | 1009.6 |
| 20260506012019 | 54 | 0 | 0.0 | 0.0 | 0.04 | 0.27 | 0.27 | 92 | 1009.7 |
| 20260506011541 | 55 | 0 | 0.0 | 0.0 | 0.06 | 0.27 | 0.27 | 92 | 1009.7 |
| 20260506011016 | 55 | 0 | 0.0 | 0.0 | 0.08 | 0.27 | 0.27 | 92 | 1009.6 |
| 20260506010516 | 55 | 0 | 0.0 | 0.0 | 0.10 | 0.27 | 0.27 | 92 | 1009.4 |
| 20260506010036 | 55 | 0 | 0.0 | 0.0 | 0.14 | 0.27 | 0.27 | 91 | 1009.7 |
| 20260506005516 | 55 | 0 | 0.0 | 0.0 | 0.15 | 0.27 | 0.27 | 91 | 1009.5 |
| 20260506005018 | 56 | 0 | 0.0 | 0.0 | 0.15 | 0.27 | 0.27 | 91 | 1009.6 |
| 20260506004532 | 56 | 0 | 0.0 | 0.0 | 0.15 | 0.27 | 0.27 | 90 | 1009.4 |
| 20260506004020 | 56 | 0 | 0.0 | 0.0 | 0.15 | 0.27 | 0.27 | 89 | 1009.5 |
| 20260506003518 | 57 | 0 | 0.0 | 0.0 | 0.15 | 0.27 | 0.27 | 88 | 1009.5 |
| 20260506003032 | 57 | 0 | 0.0 | 0.0 | 0.14 | 0.26 | 0.26 | 87 | 1009.4 |
| 20260506002518 | 58 | 0 | 0.0 | 0.0 | 0.13 | 0.25 | 0.25 | 87 | 1009.3 |
| 20260506002018 | 58 | 0 | 0.0 | 0.0 | 0.11 | 0.23 | 0.23 | 87 | 1009.3 |
| 20260506001535 | 59 | 0 | 0.0 | 0.0 | 0.09 | 0.21 | 0.21 | 86 | 1009.1 |
| 20260506001018 | 59 | 0 | 0.0 | 0.0 | 0.07 | 0.19 | 0.19 | 86 | 1008.7 |
| 20260506000518 | 60 | 0 | 0.0 | 0.0 | 0.05 | 0.17 | 0.17 | 86 | 1008.6 |
| 20260506000033 | 60 | 0 | 0.0 | 0.0 | 0.01 | 0.13 | 0.13 | 85 | 1008.5 |
| 20260505235518 | 60 | 0 | 0.0 | 0.0 | 0.00 | 0.12 | 0.12 | 83 | 1008.6 |
| 20260505235021 | 61 | 0 | 0.0 | 0.0 | 0.00 | 0.12 | 0.12 | 82 | 1008.1 |
| 20260505234532 | 61 | 0 | 0.0 | 0.0 | 0.00 | 0.12 | 0.12 | 82 | 1007.7 |
| 20260505234019 | 61 | 0 | 0.0 | 0.0 | 0.00 | 0.12 | 0.12 | 81 | 1007.6 |
| 20260505233519 | 61 | 0 | 0.0 | 0.0 | 0.00 | 0.12 | 0.12 | 81 | 1007.5 |
| 20260505233038 | 61 | 0 | 0.0 | 0.0 | 0.00 | 0.12 | 0.12 | 80 | 1007.4 |
| 20260505232518 | 62 | 0 | 0.0 | 0.0 | 0.00 | 0.12 | 0.12 | 81 | 1007.1 |
| 20260505232018 | 62 | 0 | 0.0 | 0.0 | 0.00 | 0.12 | 0.12 | 81 | 1006.9 |
| 20260505231530 | 63 | 0 | 0.0 | 0.0 | 0.00 | 0.12 | 0.12 | 80 | 1007.0 |
| 20260505231018 | 63 | 0 | 0.0 | 0.0 | 0.00 | 0.12 | 0.12 | 79 | 1007.0 |
| 20260505230515 | 64 | 0 | 0.0 | 0.0 | 0.00 | 0.12 | 0.12 | 79 | 1007.0 |
| 20260505230045 | 65 | 0 | 0.0 | 0.0 | 0.00 | 0.12 | 0.12 | 80 | 1007.1 |
| 20260505225517 | 65 | 0 | 0.0 | 0.0 | 0.00 | 0.12 | 0.12 | 80 | 1006.9 |
| 20260505225018 | 66 | 0 | 0.0 | 0.0 | 0.00 | 0.12 | 0.12 | 79 | 1006.6 |
| 20260505224534 | 67 | 0 | 0.0 | 0.0 | 0.00 | 0.12 | 0.12 | 77 | 1006.4 |
| 20260505224018 | 68 | 0 | 0.0 | 0.0 | 0.00 | 0.12 | 0.12 | 74 | 1006.3 |
| 20260505223522 | 69 | 0 | 0.0 | 0.0 | 0.00 | 0.12 | 0.12 | 78 | 1006.1 |
| 20260505223042 | 69 | 0 | 0.0 | 0.0 | 0.00 | 0.12 | 0.12 | 74 | 1006.2 |
| 20260505222522 | 68 | 0 | 0.0 | 0.0 | 0.00 | 0.12 | 0.12 | 76 | 1006.2 |
| 20260505222018 | 68 | 0 | 0.0 | 0.0 | 0.00 | 0.12 | 0.12 | 76 | 1006.1 |
| 20260505221544 | 68 | 0 | 0.0 | 0.0 | 0.00 | 0.12 | 0.12 | 77 | 1005.7 |
| 20260505221020 | 68 | 0 | 0.0 | 0.0 | 0.00 | 0.12 | 0.12 | 76 | 1005.7 |
| 20260505220518 | 68 | 0 | 0.0 | 0.0 | 0.00 | 0.12 | 0.12 | 74 | 1005.9 |
| 20260505220049 | 69 | 0 | 0.0 | 0.0 | 0.00 | 0.12 | 0.12 | 74 | 1006.0 |
| 20260505215518 | 69 | 0 | 0.0 | 0.0 | 0.00 | 0.12 | 0.12 | 73 | 1005.9 |
| 20260505215018 | 69 | 0 | 0.0 | 0.0 | 0.00 | 0.12 | 0.12 | 76 | 1005.7 |
| 20260505214537 | 68 | 0 | 0.0 | 0.0 | 0.00 | 0.12 | 0.12 | 78 | 1005.7 |
| 20260505214018 | 67 | 0 | 0.0 | 0.0 | 0.00 | 0.12 | 0.12 | 79 | 1005.5 |
| 20260505213523 | 67 | 0 | 0.0 | 0.0 | 0.00 | 0.12 | 0.12 | 85 | 1005.6 |
| 20260505213035 | 67 | 0 | 0.0 | 0.0 | 0.00 | 0.12 | 0.12 | 84 | 1005.3 |
| 20260505212518 | 66 | 0 | 0.0 | 0.0 | 0.00 | 0.12 | 0.12 | 82 | 1005.3 |
| 20260505212020 | 66 | 0 | 0.0 | 0.0 | 0.00 | 0.12 | 0.12 | 86 | 1005.4 |
| 20260505211542 | 66 | 0 | 0.0 | 0.0 | 0.00 | 0.12 | 0.12 | 84 | 1005.5 |
| 20260505211021 | 66 | 0 | 0.0 | 0.0 | 0.00 | 0.12 | 0.12 | 84 | 1005.4 |
| 20260505210521 | 65 | 0 | 0.0 | 0.0 | 0.00 | 0.12 | 0.12 | 83 | 1005.6 |
| 20260505210033 | 65 | 0 | 0.0 | 0.0 | 0.00 | 0.12 | 0.12 | 86 | 1005.7 |
| 20260505205519 | 65 | 0 | 0.0 | 0.0 | 0.00 | 0.12 | 0.12 | 86 | 1005.8 |
| 20260505205019 | 65 | 0 | 0.0 | 0.0 | 0.00 | 0.12 | 0.12 | 86 | 1005.7 |
| 20260505204530 | 64 | 0 | 0.0 | 0.0 | 0.00 | 0.12 | 0.12 | 87 | 1006.0 |
| 20260505204018 | 64 | 0 | 0.0 | 0.0 | 0.00 | 0.12 | 0.12 | 87 | 1006.0 |
| 20260505203518 | 64 | 0 | 0.0 | 0.0 | 0.01 | 0.12 | 0.12 | 86 | 1005.9 |
| 20260505203034 | 64 | 0 | 0.0 | 0.0 | 0.01 | 0.12 | 0.12 | 86 | 1005.9 |
| 20260505202518 | 65 | 0 | 0.0 | 0.0 | 0.01 | 0.12 | 0.12 | 88 | 1005.7 |
| 20260505202018 | 65 | 0 | 0.0 | 0.0 | 0.01 | 0.12 | 0.12 | 89 | 1005.6 |
| 20260505201533 | 65 | 0 | 0.0 | 0.0 | 0.01 | 0.12 | 0.12 | 88 | 1005.5 |
| 20260505201018 | 65 | 0 | 0.0 | 0.0 | 0.01 | 0.12 | 0.12 | 90 | 1005.4 |
| 20260505200518 | 65 | 0 | 0.0 | 0.0 | 0.02 | 0.12 | 0.12 | 90 | 1005.4 |
| 20260505200040 | 65 | 0 | 0.0 | 0.0 | 0.06 | 0.12 | 0.12 | 88 | 1005.6 |
| 20260505195517 | 65 | 0 | 0.0 | 0.0 | 0.10 | 0.12 | 0.12 | 88 | 1005.5 |
| 20260505195018 | 65 | 0 | 0.0 | 0.0 | 0.10 | 0.12 | 0.12 | 86 | 1005.5 |
| 20260505194532 | 64 | 0 | 0.0 | 0.0 | 0.10 | 0.12 | 0.12 | 87 | 1005.5 |
| 20260505194019 | 64 | 0 | 0.0 | 0.0 | 0.09 | 0.11 | 0.11 | 92 | 1005.4 |
| 20260505193519 | 63 | 0 | 0.0 | 0.0 | 0.09 | 0.11 | 0.11 | 92 | 1005.5 |
| 20260505193034 | 62 | 0 | 0.0 | 0.0 | 0.09 | 0.11 | 0.11 | 91 | 1005.6 |
| 20260505192519 | 61 | 0 | 0.0 | 0.0 | 0.09 | 0.11 | 0.11 | 89 | 1005.6 |
| 20260505192018 | 61 | 0 | 0.0 | 0.0 | 0.09 | 0.11 | 0.11 | 88 | 1005.9 |
| 20260505191541 | 61 | 0 | 0.0 | 0.0 | 0.09 | 0.11 | 0.11 | 87 | 1005.9 |
| 20260505191016 | 62 | 0 | 0.0 | 0.0 | 0.09 | 0.11 | 0.11 | 85 | 1005.3 |
| 20260505190521 | 63 | 0 | 0.0 | 0.0 | 0.08 | 0.10 | 0.10 | 81 | 1006.1 |
| 20260505190035 | 66 | 0 | 0.0 | 0.0 | 0.03 | 0.05 | 0.05 | 74 | 1006.5 |
| 20260505185517 | 71 | 0 | 0.0 | 0.0 | 0.00 | 0.02 | 0.02 | 64 | 1005.9 |
| 20260505185020 | 72 | 0 | 0.0 | 0.0 | 0.00 | 0.02 | 0.02 | 61 | 1004.6 |
| 20260505184532 | 72 | 0 | 0.0 | 0.0 | 0.00 | 0.02 | 0.02 | 60 | 1004.4 |
| 20260505184019 | 72 | 0 | 0.0 | 0.0 | 0.01 | 0.02 | 0.02 | 60 | 1004.3 |
| 20260505183518 | 73 | 0 | 0.0 | 0.0 | 0.01 | 0.02 | 0.02 | 61 | 1004.2 |
| 20260505183039 | 73 | 0 | 0.0 | 0.0 | 0.01 | 0.02 | 0.02 | 62 | 1004.3 |
| 20260505182518 | 73 | 0 | 0.0 | 0.0 | 0.01 | 0.02 | 0.02 | 60 | 1004.4 |
| 20260505182018 | 73 | 0 | 0.0 | 0.0 | 0.01 | 0.02 | 0.02 | 63 | 1004.4 |
| 20260505181530 | 72 | 0 | 0.0 | 0.0 | 0.01 | 0.02 | 0.02 | 64 | 1004.6 |
| 20260505181020 | 72 | 0 | 0.0 | 0.0 | 0.01 | 0.02 | 0.02 | 64 | 1004.6 |
| 20260505180518 | 71 | 0 | 0.0 | 0.0 | 0.01 | 0.02 | 0.02 | 66 | 1004.5 |
| 20260505180036 | 70 | 0 | 0.0 | 0.0 | 0.01 | 0.02 | 0.02 | 72 | 1004.7 |
| 20260505175518 | 70 | 0 | 0.0 | 0.0 | 0.01 | 0.02 | 0.02 | 70 | 1004.8 |
| 20260505175018 | 70 | 0 | 0.0 | 0.0 | 0.01 | 0.02 | 0.02 | 70 | 1004.6 |
| 20260505174531 | 71 | 0 | 0.0 | 0.0 | 0.01 | 0.02 | 0.02 | 63 | 1004.8 |
| 20260505174018 | 73 | 0 | 0.0 | 0.0 | 0.00 | 0.01 | 0.01 | 55 | 1004.6 |
| 20260505173518 | 74 | 0 | 0.0 | 0.0 | 0.00 | 0.01 | 0.01 | 53 | 1004.4 |
| 20260505173032 | 74 | 0 | 0.0 | 0.0 | 0.00 | 0.01 | 0.01 | 52 | 1004.4 |
| 20260505172517 | 74 | 0 | 0.0 | 0.0 | 0.00 | 0.01 | 0.01 | 54 | 1004.5 |
| 20260505172022 | 74 | 0 | 0.0 | 0.0 | 0.00 | 0.01 | 0.01 | 53 | 1004.3 |
| 20260505171532 | 74 | 0 | 0.0 | 0.0 | 0.00 | 0.01 | 0.01 | 51 | 1004.3 |
| 20260505171021 | 74 | 0 | 0.0 | 0.0 | 0.00 | 0.01 | 0.01 | 51 | 1004.4 |
| 20260505170518 | 75 | 0 | 0.0 | 0.0 | 0.00 | 0.01 | 0.01 | 53 | 1004.3 |
| 20260505170038 | 75 | 0 | 0.0 | 0.0 | 0.00 | 0.01 | 0.01 | 50 | 1004.0 |
| 20260505165518 | 75 | 0 | 0.0 | 0.0 | 0.00 | 0.01 | 0.01 | 52 | 1004.1 |
| 20260505165021 | 76 | 0 | 0.0 | 0.0 | 0.00 | 0.01 | 0.01 | 53 | 1004.0 |
| 20260505164535 | 76 | 0 | 0.0 | 0.0 | 0.00 | 0.01 | 0.01 | 52 | 1003.9 |
| 20260505164018 | 76 | 0 | 0.0 | 0.0 | 0.00 | 0.01 | 0.01 | 54 | 1003.9 |
| 20260505163518 | 76 | 0 | 0.0 | 0.0 | 0.00 | 0.01 | 0.01 | 53 | 1004.0 |
| 20260505163032 | 77 | 0 | 0.0 | 0.0 | 0.00 | 0.01 | 0.01 | 52 | 1004.0 |
| 20260505162525 | 77 | 0 | 0.0 | 0.0 | 0.00 | 0.01 | 0.01 | 52 | 1003.9 |
| 20260505162018 | 77 | 0 | 0.0 | 0.0 | 0.00 | 0.01 | 0.01 | 49 | 1003.9 |
| 20260505161610 | 77 | 0 | 0.0 | 0.0 | 0.00 | 0.01 | 0.01 | 51 | 1004.1 |
| 20260505161018 | 76 | 0 | 0.0 | 0.0 | 0.00 | 0.01 | 0.01 | 55 | 1004.2 |
| 20260505160521 | 76 | 0 | 0.0 | 0.0 | 0.00 | 0.01 | 0.01 | 53 | 1004.2 |
| 20260505153035 | 76 | 0 | 0.0 | 0.0 | 0.00 | 0.01 | 0.01 | 57 | 1004.4 |
| 20260505152518 | 76 | 0 | 0.0 | 0.0 | 0.00 | 0.01 | 0.01 | 54 | 1004.5 |
| 20260505152021 | 75 | 0 | 0.0 | 0.0 | 0.00 | 0.01 | 0.01 | 56 | 1004.7 |
| 20260505151534 | 75 | 0 | 0.0 | 0.0 | 0.00 | 0.01 | 0.01 | 55 | 1004.5 |
| 20260505151018 | 75 | 0 | 0.0 | 0.0 | 0.00 | 0.01 | 0.01 | 57 | 1004.4 |
| 20260505150518 | 74 | 0 | 0.0 | 0.0 | 0.00 | 0.01 | 0.01 | 54 | 1004.4 |
| 20260505140519 | 73 | 0 | 0.0 | 0.0 | 0.00 | 0.01 | 0.01 | 61 | 1004.4 |
| 20260505125018 | 67 | 0 | 0.0 | 0.0 | 0.00 | 0.01 | 0.01 | 67 | 1005.1 |
| 20260505124535 | 66 | 0 | 0.0 | 0.0 | 0.00 | 0.01 | 0.01 | 69 | 1005.0 |
| 20260505124018 | 65 | 0 | 0.0 | 0.0 | 0.00 | 0.01 | 0.01 | 68 | 1005.2 |
| 20260505123517 | 65 | 0 | 0.0 | 0.0 | 0.00 | 0.01 | 0.01 | 68 | 1005.3 |
| 20260505123034 | 65 | 0 | 0.0 | 0.0 | 0.00 | 0.01 | 0.01 | 72 | 1005.3 |
| 20260505122518 | 64 | 0 | 0.0 | 0.0 | 0.00 | 0.01 | 0.01 | 70 | 1005.2 |
| 20260505122021 | 63 | 0 | 0.0 | 0.0 | 0.00 | 0.01 | 0.01 | 70 | 1005.2 |
| 20260505121537 | 63 | 0 | 0.0 | 0.0 | 0.00 | 0.01 | 0.01 | 72 | 1005.2 |
| 20260505121018 | 63 | 0 | 0.0 | 0.0 | 0.00 | 0.01 | 0.01 | 70 | 1005.3 |
| 20260505120521 | 63 | 0 | 0.0 | 0.0 | 0.00 | 0.01 | 0.01 | 72 | 1005.3 |
| 20260505120039 | 63 | 0 | 0.0 | 0.0 | 0.00 | 0.01 | 0.01 | 71 | 1005.4 |
| 20260505115517 | 63 | 0 | 0.0 | 0.0 | 0.00 | 0.01 | 0.01 | 72 | 1005.3 |
| 20260505115014 | 63 | 0 | 0.0 | 0.0 | 0.00 | 0.01 | 0.01 | 73 | 1005.2 |
| 20260505114530 | 62 | 0 | 0.0 | 0.0 | 0.01 | 0.01 | 0.01 | 72 | 1005.1 |
| 20260505114018 | 62 | 0 | 0.0 | 0.0 | 0.01 | 0.01 | 0.01 | 74 | 1005.1 |
| 20260505113517 | 61 | 0 | 0.0 | 0.0 | 0.01 | 0.01 | 0.01 | 74 | 1005.1 |
| 20260505113036 | 61 | 0 | 0.0 | 0.0 | 0.01 | 0.01 | 0.01 | 75 | 1004.9 |
| 20260505112518 | 61 | 0 | 0.0 | 0.0 | 0.01 | 0.01 | 0.01 | 75 | 1004.9 |
| 20260505112021 | 61 | 0 | 0.0 | 0.0 | 0.01 | 0.01 | 0.01 | 74 | 1004.8 |
| 20260505111534 | 61 | 0 | 0.0 | 0.0 | 0.01 | 0.01 | 0.01 | 74 | 1004.9 |
| 20260505111020 | 60 | 0 | 0.0 | 0.0 | 0.01 | 0.01 | 0.01 | 74 | 1004.9 |
| 20260505110520 | 59 | 0 | 0.0 | 0.0 | 0.01 | 0.01 | 0.01 | 75 | 1004.8 |
| 20260505102018 | 57 | 0 | 0.0 | 0.0 | 0.00 | 0.00 | 0.00 | 77 | 1004.8 |
| 20260505101537 | 57 | 0 | 0.0 | 0.0 | 0.00 | 0.00 | 0.00 | 76 | 1004.8 |
| 20260505101018 | 57 | 0 | 0.0 | 0.0 | 0.00 | 0.00 | 0.00 | 77 | 1004.5 |
| 20260505100518 | 57 | 0 | 0.0 | 0.0 | 0.00 | 0.00 | 0.00 | 77 | 1004.7 |
| 20260505100036 | 57 | 0 | 0.0 | 0.0 | 0.00 | 0.00 | 0.00 | 77 | 1004.5 |
| 20260505095518 | 57 | 0 | 0.0 | 0.0 | 0.00 | 0.00 | 0.00 | 77 | 1004.6 |
| 20260505095017 | 57 | 0 | 0.0 | 0.0 | 0.00 | 0.00 | 0.00 | 78 | 1004.4 |
| 20260505094532 | 57 | 0 | 0.0 | 0.0 | 0.00 | 0.00 | 0.00 | 78 | 1004.6 |
| 20260505094018 | 57 | 0 | 0.0 | 0.0 | 0.00 | 0.00 | 0.00 | 79 | 1004.7 |
| 20260505093518 | 57 | 0 | 0.0 | 0.0 | 0.00 | 0.00 | 0.00 | 79 | 1004.7 |
| 20260505093033 | 57 | 0 | 0.0 | 0.0 | 0.00 | 0.00 | 0.00 | 80 | 1004.9 |
| 20260505092517 | 57 | 0 | 0.0 | 0.0 | 0.00 | 0.00 | 0.00 | 81 | 1004.8 |
| 20260505092018 | 57 | 0 | 0.0 | 0.0 | 0.00 | 0.00 | 0.00 | 82 | 1004.9 |
| 20260505091534 | 56 | 0 | 0.0 | 0.0 | 0.00 | 0.00 | 0.00 | 82 | 1004.9 |
| 20260505091018 | 56 | 0 | 0.0 | 0.0 | 0.00 | 0.00 | 0.00 | 82 | 1004.9 |
| 20260505090518 | 56 | 0 | 0.0 | 0.0 | 0.00 | 0.00 | 0.00 | 81 | 1005.0 |
| 20260505090042 | 56 | 0 | 0.0 | 0.0 | 0.00 | 0.00 | 0.00 | 81 | 1005.1 |
| 20260505085517 | 56 | 0 | 0.0 | 0.0 | 0.00 | 0.00 | 0.00 | 78 | 1005.2 |
| 20260505085017 | 57 | 0 | 0.0 | 0.0 | 0.00 | 0.00 | 0.00 | 78 | 1005.4 |
| 20260505084546 | 57 | 0 | 0.0 | 0.0 | 0.00 | 0.00 | 0.00 | 76 | 1005.4 |
| 20260505084018 | 57 | 0 | 0.0 | 0.0 | 0.00 | 0.00 | 0.00 | 73 | 1005.5 |
| 20260505083521 | 57 | 0 | 0.0 | 0.0 | 0.00 | 0.00 | 0.00 | 73 | 1005.3 |
| 20260505083034 | 57 | 0 | 0.0 | 0.0 | 0.00 | 0.00 | 0.00 | 72 | 1005.3 |
| 20260505082518 | 57 | 0 | 0.0 | 0.0 | 0.00 | 0.00 | 0.00 | 73 | 1005.2 |
| 20260505082018 | 57 | 0 | 0.0 | 0.0 | 0.00 | 0.00 | 0.00 | 73 | 1004.9 |
| 20260505081531 | 58 | 0 | 0.0 | 0.0 | 0.00 | 0.00 | 0.00 | 74 | 1004.8 |
| 20260505081022 | 58 | 0 | 0.0 | 0.0 | 0.00 | 0.00 | 0.00 | 73 | 1004.8 |
| 20260505080518 | 58 | 0 | 0.0 | 0.0 | 0.00 | 0.00 | 0.00 | 74 | 1004.8 |
| 20260505080041 | 58 | 0 | 0.0 | 0.0 | 0.00 | 0.00 | 0.00 | 75 | 1004.6 |
| 20260505075517 | 58 | 0 | 0.0 | 0.0 | 0.00 | 0.00 | 0.00 | 75 | 1004.8 |
| 20260505075017 | 59 | 0 | 0.0 | 0.0 | 0.00 | 0.00 | 0.00 | 74 | 1005.0 |
| 20260505074529 | 59 | 0 | 0.0 | 0.0 | 0.00 | 0.00 | 0.00 | 75 | 1004.9 |
| 20260505074017 | 59 | 0 | 0.0 | 0.0 | 0.00 | 0.00 | 0.00 | 76 | 1005.2 |
| 20260505073517 | 59 | 0 | 0.0 | 0.0 | 0.00 | 0.00 | 0.00 | 76 | 1005.2 |
| 20260505073036 | 60 | 0 | 0.0 | 0.0 | 0.00 | 0.00 | 0.00 | 76 | 1005.1 |
| 20260505072517 | 60 | 0 | 0.0 | 0.0 | 0.00 | 0.00 | 0.00 | 76 | 1005.3 |
| 20260505072018 | 61 | 0 | 0.0 | 0.0 | 0.00 | 0.00 | 0.00 | 75 | 1005.1 |
| 20260505071544 | 61 | 0 | 0.0 | 0.0 | 0.00 | 0.00 | 0.00 | 73 | 1005.1 |
| 20260505071018 | 61 | 0 | 0.0 | 0.0 | 0.00 | 0.00 | 0.00 | 70 | 1004.8 |
| 20260505070518 | 61 | 0 | 0.0 | 0.0 | 0.00 | 0.00 | 0.00 | 68 | 1004.9 |
| 20260505070047 | 60 | 0 | 0.0 | 0.0 | 0.00 | 0.00 | 0.00 | 67 | 1005.0 |
| 20260505065520 | 60 | 0 | 0.0 | 0.0 | 0.00 | 0.00 | 0.00 | 66 | 1005.2 |
| 20260505065018 | 60 | 0 | 0.0 | 0.0 | 0.00 | 0.00 | 0.00 | 66 | 1005.1 |
| 20260505064534 | 60 | 0 | 0.0 | 0.0 | 0.00 | 0.00 | 0.00 | 66 | 1004.9 |
| 20260505064018 | 60 | 0 | 0.0 | 0.0 | 0.00 | 0.00 | 0.00 | 65 | 1004.9 |
| 20260505063518 | 60 | 0 | 0.0 | 0.0 | 0.00 | 0.00 | 0.00 | 66 | 1004.9 |
| 20260505063040 | 61 | 0 | 0.0 | 0.0 | 0.00 | 0.00 | 0.00 | 67 | 1004.9 |
| 20260505062520 | 61 | 0 | 0.0 | 0.0 | 0.00 | 0.00 | 0.00 | 66 | 1004.8 |
| 20260505062020 | 60 | 0 | 0.0 | 0.0 | 0.00 | 0.00 | 0.00 | 66 | 1004.8 |
| 20260505061537 | 61 | 0 | 0.0 | 0.0 | 0.00 | 0.00 | 0.00 | 67 | 1004.8 |
| 20260505061018 | 61 | 0 | 0.0 | 0.0 | 0.00 | 0.00 | 0.00 | 65 | 1004.7 |
| 20260505060518 | 61 | 0 | 0.0 | 0.0 | 0.00 | 0.00 | 0.00 | 64 | 1004.6 |
| 20260505060038 | 61 | 0 | 0.0 | 0.0 | 0.00 | 0.00 | 0.00 | 65 | 1004.5 |
| 20260505055518 | 61 | 0 | 0.0 | 0.0 | 0.00 | 0.00 | 0.00 | 64 | 1004.7 |
| 20260505055018 | 61 | 0 | 0.0 | 0.0 | 0.00 | 0.00 | 0.00 | 62 | 1004.7 |
| 20260505054536 | 61 | 0 | 0.0 | 0.0 | 0.00 | 0.00 | 0.00 | 64 | 1004.7 |
| 20260505054018 | 61 | 0 | 0.0 | 0.0 | 0.00 | 0.00 | 0.00 | 63 | 1004.8 |
| 20260505053517 | 61 | 0 | 0.0 | 0.0 | 0.00 | 0.00 | 0.00 | 64 | 1004.9 |
| 20260505053035 | 61 | 0 | 0.0 | 0.0 | 0.00 | 0.00 | 0.00 | 64 | 1004.9 |
| 20260505052518 | 60 | 0 | 0.0 | 0.0 | 0.00 | 0.00 | 0.00 | 65 | 1004.8 |
| 20260505052017 | 60 | 0 | 0.0 | 0.0 | 0.00 | 0.00 | 0.00 | 66 | 1005.0 |
| 20260505051532 | 60 | 0 | 0.0 | 0.0 | 0.00 | 0.00 | 0.00 | 66 | 1004.9 |
| 20260505051019 | 59 | 0 | 0.0 | 0.0 | 0.00 | 0.00 | 0.00 | 68 | 1005.1 |
| 20260505050518 | 58 | 0 | 0.0 | 0.0 | 0.00 | 0.00 | 0.00 | 68 | 1005.0 |
| 20260505041530 | 57 | 0 | 0.0 | 0.0 | 0.00 | 0.00 | 0.00 | 68 | 1004.8 |
| 20260505041018 | 56 | 0 | 0.0 | 0.0 | 0.00 | 0.00 | 0.00 | 72 | 1004.8 |
| 20260505040518 | 56 | 0 | 0.0 | 0.0 | 0.00 | 0.00 | 0.00 | 71 | 1004.9 |
| 20260505040036 | 56 | 0 | 0.0 | 0.0 | 0.00 | 0.00 | 0.00 | 71 | 1004.9 |
| 20260505035517 | 55 | 0 | 0.0 | 0.0 | 0.00 | 0.00 | 0.00 | 73 | 1004.8 |
| 20260505035018 | 55 | 0 | 0.0 | 0.0 | 0.00 | 0.00 | 0.00 | 74 | 1004.9 |
| 20260505034538 | 55 | 0 | 0.0 | 0.0 | 0.00 | 0.00 | 0.00 | 75 | 1004.9 |
| 20260505034018 | 55 | 0 | 0.0 | 0.0 | 0.00 | 0.00 | 0.00 | 74 | 1004.9 |
| 20260505033519 | 55 | 0 | 0.0 | 0.0 | 0.00 | 0.00 | 0.00 | 75 | 1004.7 |
| 20260505033038 | 55 | 0 | 0.0 | 0.0 | 0.00 | 0.00 | 0.00 | 74 | 1004.6 |
| 20260505032519 | 55 | 0 | 0.0 | 0.0 | 0.00 | 0.00 | 0.00 | 76 | 1004.8 |
| 20260505032017 | 55 | 0 | 0.0 | 0.0 | 0.00 | 0.00 | 0.00 | 76 | 1004.8 |
| 20260505031543 | 55 | 0 | 0.0 | 0.0 | 0.00 | 0.00 | 0.00 | 77 | 1004.8 |
| 20260505031019 | 54 | 0 | 0.0 | 0.0 | 0.00 | 0.00 | 0.00 | 77 | 1004.8 |
| 20260505030519 | 53 | 0 | 0.0 | 0.0 | 0.00 | 0.00 | 0.00 | 81 | 1004.8 |
| 20260505030032 | 53 | 0 | 0.0 | 0.0 | 0.00 | 0.00 | 0.00 | 82 | 1004.9 |
| 20260505025518 | 53 | 0 | 0.0 | 0.0 | 0.00 | 0.01 | 0.00 | 83 | 1004.9 |
| 20260505025018 | 53 | 0 | 0.0 | 0.0 | 0.00 | 0.01 | 0.00 | 83 | 1004.9 |
| 20260505024545 | 53 | 0 | 0.0 | 0.0 | 0.00 | 0.01 | 0.00 | 84 | 1004.9 |